Location: Unspecified
(0.0000°N, 0.0000°E)
Time: 07:15:40
(UTC+00:00)

Amsat-Oscar-6 - Pass Details

Date: 23 June 2019
Orbit: 1448 x 1454 km, 101.8° (Epoch: 20 July)

Event Time Altitude Azimuth Distance (km) Brightness Sun altitude
Rises 04:18:10 0° 354° (N) 4,541 ? -23.7°
Reaches altitude 10° 04:21:22 10° 343° (NNW) 3,565 ? -23.0°
Maximum altitude 04:28:16 30° 287° (WNW) 2,379 ? -21.4°
Enters shadow 04:29:47 28° 269° (W) 2,451 ? -21.1°
